This is the latest recevied weather packets stored in our database for station/object N3EDS. If no packets are shown the sender has not sent any weather packets the latest 10 day(s).
| Time | Temp. | Humidity | Pressure | Rain* | Wind** | Luminosity | Snow |
|---|---|---|---|---|---|---|---|
| 1777647361 | 10.56° C | 67% | 1013.4 hPa | 0 mm | - | 610 W/m² | - |
| 1777647060 | 10° C | 63% | 1013.3 hPa | 0 mm | - | 603 W/m² | - |
| 1777646755 | 10.56° C | 64% | 1013.6 hPa | 0 mm | - | 509 W/m² | - |
| 1777646450 | 10° C | 66% | 1013.3 hPa | 0 mm | - | 600 W/m² | - |
| 1777646147 | 9.44° C | 68% | 1013.3 hPa | 0 mm | - | 551 W/m² | - |
| 1777645844 | 9.44° C | 66% | 1013.3 hPa | 0 mm | - | 240 W/m² | - |
| 1777645541 | 8.89° C | 68% | 1013.6 hPa | 0 mm | - | 646 W/m² | - |
| 1777645238 | 8.89° C | 68% | 1013.3 hPa | 0 mm | - | 368 W/m² | - |
| 1777644933 | 8.89° C | 72% | 1013.7 hPa | 0 mm | - | 145 W/m² | - |
| 1777644631 | 8.89° C | 69% | 1013.8 hPa | 0 mm | - | 172 W/m² | - |
| 1777644327 | 8.33° C | 76% | 1013.8 hPa | 0 mm | - | 125 W/m² | - |
| 1777644023 | 8.33° C | 79% | 1013.7 hPa | 0 mm | - | 338 W/m² | - |
| 1777643720 | 8.33° C | 78% | 1013.8 hPa | 0 mm | - | 298 W/m² | - |
| 1777643418 | 7.78° C | 79% | 1013.7 hPa | 0 mm | - | 342 W/m² | - |
| 1777643114 | 7.78° C | 82% | 1013.8 hPa | 0 mm | - | 106 W/m² | - |
| 1777642811 | 7.22° C | 88% | 1013.9 hPa | 0 mm | - | 87 W/m² | - |
| 1777642508 | 6.11° C | 93% | 1014.1 hPa | 0 mm | - | 69 W/m² | - |
| 1777642204 | 5.56° C | 97% | 1014 hPa | 0 mm | - | 63 W/m² | - |
| 1777641901 | 5.56° C | 99% | 1014.1 hPa | 0 mm | - | 77 W/m² | - |
| 1777641596 | 5° C | 99% | 1014.3 hPa | 0 mm | - | 140 W/m² | - |
| 1777641296 | 4.44° C | 99% | 1014 hPa | 0 mm | - | 69 W/m² | - |
| 1777640993 | 4.44° C | 99% | 1014.1 hPa | 0 mm | - | 132 W/m² | - |
| 1777640689 | 3.89° C | 99% | 1014.3 hPa | 0 mm | - | 50 W/m² | - |
| 1777640385 | 3.89° C | 99% | 1014.3 hPa | 0 mm | - | 62 W/m² | - |
| 1777640083 | 3.33° C | 99% | 1014.3 hPa | 0 mm | - | 51 W/m² | - |
* Rain latest hour (hover to see other rain measurements)
** Current wind speed in m/s (hover to see current wind gust speed)